Location: Newark
(44.3248°N, 23.7839°E)
Time: 16:30:41
(UTC+00:00)

FO-29 - Pass Details

Date: 28 April 2024
Orbit: 801 x 1320 km, 98.6° (Epoch: 19 May)

Event Time Altitude Azimuth Distance (km) Brightness Sun altitude
Rises 01:59:06 0° 5° (N) 4,225 13.5 -13.5°
Reaches altitude 10° 02:02:13 10° 354° (N) 3,300 12.7 -13.1°
Maximum altitude 02:08:15 26° 302° (WNW) 2,340 11.3 -12.2°
Enters shadow 02:13:44 12° 254° (WSW) 3,167 11.6 -11.3°
